Hourly Data Report for September 24, 2004

SHERBROOKE A
QUEBEC

45°26'00.000" N
71°41'00.000" W
241.40 m
7028124
71610
YSC

Download Data

Hourly Data (September 2004)
Hourly Data Report for September 24, 2004
TIME
LST
Temp Definition
°C
Dew Point Definition
°C
Rel Hum Definition
%
Precip. Amount Definition
mm

Wind Dir Definition
10's deg

Wind Spd Definition
km/h
Visibility Definition
km
Stn Press Definition
kPa
Hmdx Definition


Wind Chill Definition


Weather Definition


00:00 6.2 5.5 95   10 4 15.0 99.66      
01:00 6.0 5.3 95     0 15.0 99.65      
02:00 5.8 4.8 93     0 15.0 99.67      
03:00 4.6 3.9 95     0 15.0 99.66      
04:00 5.3 4.6 95   10 6 15.0 99.67      
05:00 5.5 4.6 94   9 7 15.0 99.66      
06:00 5.3 4.4 94   13 6 15.0 99.67      
07:00 7.8 6.7 93   10 4 24.1 99.65     Mainly Clear
08:00 10.0 8.1 88     0 24.1 99.65     Mainly Clear
09:00 14.5 9.7 73     0 24.1 99.63     Mainly Clear
10:00 19.0 11.1 60     0 24.1 99.57     Mainly Clear
11:00 19.5 11.1 58   27 9 24.1 99.55     Mainly Clear
12:00 21.7 10.9 50     0 24.1 99.48     Mainly Clear
13:00 23.1 12.1 50   23 6 24.1 99.41 25   Mainly Clear
14:00 23.0 11.1 47   20 9 24.1 99.34 25   Mainly Clear
15:00 23.6 11.5 47   24 6 24.1 99.25 26   Mainly Clear
16:00 23.2 10.2 44   23 9 24.1 99.21 25   Mainly Clear
17:00 21.3 12.6 58   22 4 15.0 99.16      
18:00 15.6 11.7 78   16 6 15.0 99.15      
19:00 13.2 11.1 87     0 15.0 99.17      
20:00 12.9 11.5 91     0 15.0 99.13      
21:00 11.2 10.6 96   9 6 15.0 99.11      
22:00 10.7 9.6 93   9 4 15.0 99.07      
23:00 9.7 8.9 95     0 15.0 99.04      

Notes on Data Quality.

Legend

  • E = Estimated
  • M = Missing
  • NA = Not Available*
  • [empty] = Indicates an unobserved value
Date modified: